Flag for Spain Weather past 2 weeks in Las Palmas, Canary Islands, Spain

Now
68 °F

Passing clouds.


Feels Like: 68 °F
Forecast: 62 / 72 °F
Wind: 2 mph from North

Location: Las Palmas De Gran Canaria / Gando


UV Index: 7 (High)

Visibility: N/A


Pressure: 30.04 "Hg

Humidity: 83%

Dew point: 63 °F

Location of Las PalmasLocation

Historic Weather in Las Palmas

°F

Las Palmas temperature yesterday

Maximum temperature yesterday: 73 °F (at 3:30 PM)
Minimum temperature yesterday: 66 °F (at 3:00 AM)
Average temperature yesterday: 69 °F

Past Weeks' High & Low Weather Summary

 TemperatureHumidityPressure
High86 °F (Apr 13, 3:00 PM)88% (Apr 11, 5:30 AM)30.21 "Hg (Apr 11, 5:30 AM)
Low61 °F (Apr 5, 2:00 AM)31% (Apr 13, 3:00 PM)29.89 "Hg (Apr 13, 6:30 AM)
Average67 °F74%30.02 "Hg
* Reported Apr 4 11:00 PM — Apr 19 11:00 PM, Las Palmas, Weather by CustomWeather, © 2014

Note: Actual official high and low records may vary slightly from our data, if they occured in-between our weather recording intervals... More about our weather records

Advertising

Historic Weather Conditions — Data for Previous 24 hours

 ConditionsComfort  
Time TempWeatherWind HumidityBarometerVisibility
11:00 PM
Apr 19
68 °FPassing clouds.2 mph83%30.04 "HgN/A
10:30 PM68 °FPassing clouds.5 mph83%30.04 "HgN/A
10:00 PM68 °FPassing clouds.2 mph83%30.04 "HgN/A
9:30 PM68 °FPassing clouds.1 mph83%30.04 "HgN/A
9:00 PM68 °FScattered clouds.2 mph83%30.01 "HgN/A
8:30 PM68 °FScattered clouds.6 mph83%30.01 "HgN/A
8:00 PM70 °FScattered clouds.9 mph73%30.01 "HgN/A
7:30 PM70 °FBroken clouds.9 mph73%30.01 "HgN/A
7:00 PM70 °FBroken clouds.12 mph73%30.01 "HgN/A
6:30 PM70 °FBroken clouds.13 mph73%30.01 "HgN/A
6:00 PM72 °FBroken clouds.15 mph69%30.01 "HgN/A
5:30 PM72 °FBroken clouds.14 mph65%30.01 "HgN/A
5:00 PM73 °FPartly sunny.6 mph57%30.01 "HgN/A
4:30 PM73 °FPartly sunny.9 mph65%30.01 "HgN/A
4:00 PM73 °FPartly sunny.10 mph61%30.01 "HgN/A
3:30 PM73 °FPartly sunny.10 mph61%30.01 "HgN/A
3:00 PM72 °FPartly sunny.10 mph69%30.01 "HgN/A
2:30 PM72 °FScattered clouds.12 mph69%30.04 "HgN/A
2:00 PM70 °FScattered clouds.10 mph73%30.04 "HgN/A
1:30 PM70 °FPassing clouds.9 mph73%30.04 "HgN/A
1:00 PM70 °FPassing clouds.9 mph73%30.04 "HgN/A
12:30 PM70 °FPassing clouds.9 mph73%30.04 "HgN/A
12:00 PM70 °FPassing clouds.8 mph73%30.04 "HgN/A
11:30 AM70 °FScattered clouds.8 mph73%30.04 "HgN/A
11:00 AM68 °FScattered clouds.7 mph78%30.04 "HgN/A
10:30 AM68 °FPartly sunny.6 mph78%30.04 "HgN/A
10:00 AM68 °FPartly sunny.3 mph78%30.04 "HgN/A
9:30 AM68 °FPartly sunny.No wind73%30.04 "HgN/A
9:00 AM66 °FPartly sunny.2 mph78%30.01 "HgN/A
8:30 AM66 °FPassing clouds.No wind78%30.01 "HgN/A
8:00 AM66 °FPassing clouds.2 mph78%30.04 "HgN/A
7:30 AM66 °FPassing clouds.2 mph78%30.01 "HgN/A
7:00 AM66 °FPassing clouds.2 mph83%29.98 "HgN/A
6:30 AM66 °FPassing clouds.1 mph83%29.98 "HgN/A
6:00 AM66 °FPassing clouds.1 mph78%30.01 "HgN/A
5:30 AM66 °FPassing clouds.3 mph83%30.01 "HgN/A
5:00 AM66 °FPassing clouds.2 mph78%30.01 "HgN/A
4:30 AM66 °FPassing clouds.3 mph78%30.01 "HgN/A
4:00 AM66 °FPassing clouds.10 mph78%29.98 "HgN/A
3:30 AM66 °FPassing clouds.15 mph78%29.98 "HgN/A
3:00 AM66 °FPassing clouds.12 mph78%30.01 "HgN/A
2:30 AM68 °FPassing clouds.9 mph73%30.04 "HgN/A
2:00 AM68 °FPassing clouds.8 mph73%30.04 "HgN/A
1:30 AM68 °FPassing clouds.14 mph73%30.04 "HgN/A
1:00 AM68 °FPassing clouds.13 mph73%30.04 "HgN/A
12:30 AM68 °FPassing clouds.9 mph73%30.07 "HgN/A
12:00 AM68 °FPassing clouds.9 mph73%30.09 "HgN/A
Weather by CustomWeather, © 2014

See weather overview